| time (UTC) | temp C | wind direction | speed KPH | gust KPH | rain 1hr cm | rain 24hr cm | rain mn cm | humidity % | barometer mb |
| 20260906111003 | 14 | 309 | 3.2 | 11.3 | 0.03 | 0.48 | 0.33 | 94 | 1016.1 |
| 20260906110503 | 14 | 29 | 4.8 | 8.0 | 0.03 | 0.48 | 0.33 | 94 | 1016.0 |
| 20260906110003 | 14 | 93 | 1.6 | 11.3 | 0.03 | 0.48 | 0.33 | 94 | 1015.8 |
| 20260906105502 | 14 | 34 | 3.2 | 14.5 | 0.05 | 0.48 | 0.33 | 94 | 1016.0 |
| 20260906105004 | 14 | 53 | 8.0 | 16.1 | 0.03 | 0.46 | 0.30 | 94 | 1015.8 |
| 20260906104504 | 14 | 15 | 8.0 | 19.3 | 0.03 | 0.46 | 0.30 | 94 | 1015.8 |
| 20260906104003 | 14 | 61 | 8.0 | 19.3 | 0.03 | 0.46 | 0.30 | 95 | 1015.7 |
| 20260906103503 | 15 | 36 | 6.4 | 19.3 | 0.03 | 0.46 | 0.30 | 95 | 1015.6 |
| 20260906103012 | 15 | 47 | 4.8 | 16.1 | 0.03 | 0.46 | 0.30 | 95 | 1015.5 |
| 20260906102502 | 15 | 19 | 4.8 | 16.1 | 0.03 | 0.46 | 0.30 | 95 | 1015.4 |
| 20260906102004 | 15 | 41 | 1.6 | 6.4 | 0.03 | 0.46 | 0.30 | 95 | 1015.5 |
| 20260906101504 | 15 | 44 | 3.2 | 6.4 | 0.03 | 0.46 | 0.30 | 95 | 1015.4 |
| 20260906101002 | 15 | 9 | 1.6 | 4.8 | 0.03 | 0.46 | 0.30 | 95 | 1015.3 |
| 20260906100505 | 15 | 38 | 1.6 | 11.3 | 0.03 | 0.46 | 0.30 | 95 | 1015.3 |
| 20260906100004 | 15 | 32 | 4.8 | 11.3 | 0.05 | 0.46 | 0.30 | 95 | 1015.3 |
| 20260906095503 | 15 | 22 | 3.2 | 6.4 | 0.05 | 0.43 | 0.28 | 95 | 1015.2 |
| 20260906095003 | 15 | 30 | 3.2 | 6.4 | 0.08 | 0.43 | 0.28 | 95 | 1015.2 |
| 20260906094506 | 15 | 309 | 1.6 | 6.4 | 0.08 | 0.43 | 0.28 | 95 | 1015.2 |
| 20260906094007 | 15 | 342 | 1.6 | 6.4 | 0.08 | 0.43 | 0.28 | 95 | 1015.2 |
| 20260906093504 | 15 | 344 | 1.6 | 6.4 | 0.08 | 0.43 | 0.28 | 95 | 1015.2 |
| 20260906093006 | 14 | 338 | 3.2 | 6.4 | 0.10 | 0.43 | 0.28 | 95 | 1015.1 |
| 20260906092503 | 15 | 325 | 3.2 | 6.4 | 0.10 | 0.43 | 0.28 | 95 | 1015.0 |
| 20260906092003 | 15 | 298 | 1.6 | 6.4 | 0.13 | 0.43 | 0.28 | 95 | 1015.0 |
| 20260906091504 | 15 | 325 | 1.6 | 6.4 | 0.13 | 0.43 | 0.28 | 95 | 1014.9 |
| 20260906091005 | 15 | 9 | 1.6 | 8.0 | 0.13 | 0.43 | 0.28 | 95 | 1014.9 |
| 20260906090503 | 15 | 31 | 3.2 | 12.9 | 0.18 | 0.43 | 0.28 | 95 | 1014.9 |
| 20260906090009 | 15 | 338 | 4.8 | 14.5 | 0.18 | 0.41 | 0.25 | 95 | 1014.8 |
| 20260906085504 | 15 | 302 | 6.4 | 14.5 | 0.18 | 0.38 | 0.23 | 94 | 1014.8 |
| 20260906085003 | 15 | 332 | 4.8 | 11.3 | 0.15 | 0.36 | 0.20 | 95 | 1014.9 |
| 20260906084510 | 15 | 9 | 1.6 | 6.4 | 0.18 | 0.36 | 0.20 | 95 | 1014.8 |
| 20260906084003 | 15 | 9 | 1.6 | 9.7 | 0.18 | 0.36 | 0.20 | 95 | 1014.9 |
| 20260906083503 | 15 | 15 | 1.6 | 9.7 | 0.18 | 0.36 | 0.20 | 95 | 1014.9 |
| 20260906083007 | 15 | 32 | 3.2 | 6.4 | 0.15 | 0.33 | 0.18 | 95 | 1014.9 |
| 20260906082503 | 15 | 9 | 3.2 | 6.4 | 0.15 | 0.33 | 0.18 | 94 | 1014.9 |
| 20260906082004 | 15 | 15 | 3.2 | 6.4 | 0.13 | 0.30 | 0.15 | 94 | 1014.8 |
| 20260906081510 | 15 | 34 | 1.6 | 6.4 | 0.13 | 0.30 | 0.15 | 95 | 1014.8 |
| 20260906081003 | 15 | 19 | 1.6 | 8.0 | 0.13 | 0.30 | 0.15 | 95 | 1014.8 |
| 20260906080506 | 15 | 341 | 1.6 | 8.0 | 0.08 | 0.25 | 0.10 | 95 | 1014.8 |
| 20260906080007 | 15 | 13 | 3.2 | 6.4 | 0.05 | 0.23 | 0.08 | 95 | 1014.9 |
| 20260906075503 | 15 | 9 | 1.6 | 12.9 | 0.03 | 0.20 | 0.05 | 95 | 1014.9 |
| 20260906075004 | 15 | 19 | 4.8 | 12.9 | 0.03 | 0.20 | 0.05 | 94 | 1014.9 |
| 20260906074510 | 15 | 34 | 4.8 | 8.0 | 0.00 | 0.18 | 0.03 | 95 | 1014.8 |
| 20260906074003 | 15 | 26 | 3.2 | 8.0 | 0.00 | 0.18 | 0.03 | 94 | 1014.8 |
| 20260906073507 | 15 | 26 | 4.8 | 6.4 | 0.00 | 0.18 | 0.03 | 94 | 1014.7 |
| 20260906073015 | 15 | 9 | 0.0 | 4.8 | 0.00 | 0.18 | 0.03 | 94 | 1014.7 |
| 20260906072503 | 15 | 316 | 0.0 | 4.8 | 0.00 | 0.18 | 0.03 | 94 | 1014.7 |
| 20260906072004 | 15 | 9 | 1.6 | 4.8 | 0.00 | 0.18 | 0.03 | 94 | 1014.7 |
| 20260906071524 | 15 | 341 | 1.6 | 3.2 | 0.00 | 0.18 | 0.03 | 94 | 1014.6 |
| 20260906071006 | 15 | 250 | 1.6 | 3.2 | 0.00 | 0.18 | 0.03 | 94 | 1014.6 |
| 20260906070509 | 15 | 325 | 0.0 | 3.2 | 0.00 | 0.18 | 0.03 | 94 | 1014.6 |
| 20260906070015 | 15 | 221 | 0.0 | 3.2 | 0.00 | 0.18 | 0.03 | 94 | 1014.7 |
| 20260906065507 | 15 | 9 | 0.0 | 4.8 | 0.00 | 0.18 | 0.03 | 94 | 1014.7 |
| 20260906065006 | 15 | 76 | 1.6 | 4.8 | 0.00 | 0.18 | 0.03 | 94 | 1014.6 |
| 20260906064513 | 15 | 9 | 0.0 | 3.2 | 0.00 | 0.18 | 0.03 | 94 | 1014.6 |
| 20260906064009 | 15 | 265 | 0.0 | 3.2 | 0.00 | 0.18 | 0.03 | 94 | 1014.6 |
| 20260906063508 | 15 | 221 | 0.0 | 3.2 | 0.00 | 0.18 | 0.03 | 94 | 1014.6 |
| 20260906063012 | 15 | 221 | 0.0 | 4.8 | 0.00 | 0.18 | 0.03 | 94 | 1014.6 |
| 20260906062505 | 15 | 67 | 0.0 | 6.4 | 0.00 | 0.18 | 0.03 | 94 | 1014.6 |
| 20260906062010 | 15 | 193 | 3.2 | 6.4 | 0.03 | 0.18 | 0.03 | 94 | 1014.5 |
| 20260906061515 | 15 | 188 | 3.2 | 4.8 | 0.03 | 0.18 | 0.03 | 94 | 1014.6 |
| 20260906061010 | 15 | 205 | 3.2 | 4.8 | 0.03 | 0.18 | 0.03 | 94 | 1014.7 |
| 20260906060505 | 15 | 153 | 0.0 | 3.2 | 0.03 | 0.18 | 0.03 | 94 | 1014.7 |
| 20260906060020 | 15 | 51 | 0.0 | 3.2 | 0.03 | 0.18 | 0.03 | 94 | 1014.8 |
| 20260906055505 | 15 | 93 | 0.0 | 3.2 | 0.03 | 0.18 | 0.03 | 94 | 1014.8 |
| 20260906055009 | 15 | 309 | 0.0 | 3.2 | 0.03 | 0.18 | 0.03 | 94 | 1014.7 |
| 20260906054515 | 15 | 265 | 0.0 | 3.2 | 0.03 | 0.18 | 0.03 | 94 | 1014.7 |
| 20260906054008 | 15 | 265 | 0.0 | 4.8 | 0.03 | 0.18 | 0.03 | 94 | 1014.7 |
| 20260906053508 | 15 | 309 | 0.0 | 6.4 | 0.03 | 0.18 | 0.03 | 94 | 1014.7 |
| 20260906053017 | 15 | 22 | 1.6 | 6.4 | 0.03 | 0.18 | 0.03 | 94 | 1014.7 |
| 20260906052509 | 15 | 34 | 4.8 | 6.4 | 0.03 | 0.18 | 0.03 | 94 | 1014.7 |
| 20260906052011 | 15 | 34 | 3.2 | 11.3 | 0.00 | 0.15 | 0.00 | 93 | 1014.8 |
| 20260906051518 | 15 | 16 | 4.8 | 12.9 | 0.00 | 0.15 | 0.00 | 93 | 1014.9 |
| 20260906051011 | 15 | 36 | 6.4 | 12.9 | 0.00 | 0.15 | 0.00 | 93 | 1014.9 |
| 20260906050513 | 15 | 325 | 4.8 | 14.5 | 0.00 | 0.15 | 0.00 | 93 | 1014.8 |
| 20260906050018 | 15 | 42 | 4.8 | 14.5 | 0.00 | 0.15 | 0.00 | 93 | 1014.9 |
| 20260906045513 | 15 | 53 | 4.8 | 11.3 | 0.00 | 0.15 | 0.00 | 93 | 1014.7 |
| 20260906045006 | 15 | 51 | 3.2 | 11.3 | 0.00 | 0.15 | 0.00 | 93 | 1014.7 |
| 20260906044518 | 15 | 340 | 4.8 | 11.3 | 0.00 | 0.15 | 0.00 | 93 | 1014.8 |
| 20260906044012 | 15 | 44 | 4.8 | 17.7 | 0.00 | 0.15 | 0.00 | 93 | 1014.8 |
| 20260906043509 | 15 | 41 | 8.0 | 17.7 | 0.00 | 0.15 | 0.00 | 93 | 1014.9 |
| 20260906043030 | 16 | 63 | 8.0 | 17.7 | 0.00 | 0.15 | 0.00 | 93 | 1014.7 |
| 20260906042510 | 16 | 34 | 9.7 | 14.5 | 0.00 | 0.15 | 0.00 | 93 | 1014.7 |
| 20260906042010 | 16 | 44 | 4.8 | 8.0 | 0.00 | 0.15 | 0.00 | 93 | 1014.7 |
| 20260906041521 | 16 | 47 | 4.8 | 8.0 | 0.00 | 0.15 | 0.00 | 93 | 1014.8 |
| 20260906041010 | 16 | 56 | 3.2 | 12.9 | 0.00 | 0.15 | 0.00 | 93 | 1014.8 |
| 20260906040509 | 16 | 57 | 6.4 | 12.9 | 0.03 | 0.15 | 0.00 | 93 | 1014.7 |
| 20260906040025 | 16 | 9 | 3.2 | 11.3 | 0.08 | 0.15 | 0.00 | 93 | 1014.7 |
| 20260906035511 | 16 | 17 | 4.8 | 11.3 | 0.08 | 0.15 | 0.15 | 93 | 1014.7 |
| 20260906035010 | 16 | 22 | 3.2 | 4.8 | 0.08 | 0.15 | 0.15 | 93 | 1014.6 |
| 20260906034546 | 16 | 61 | 0.0 | 9.7 | 0.08 | 0.15 | 0.15 | 93 | 1014.5 |
| 20260906034012 | 16 | 38 | 3.2 | 11.3 | 0.08 | 0.15 | 0.15 | 93 | 1014.4 |
| 20260906033510 | 16 | 13 | 4.8 | 11.3 | 0.08 | 0.15 | 0.15 | 92 | 1014.4 |
| 20260906033023 | 16 | 43 | 3.2 | 14.5 | 0.10 | 0.15 | 0.15 | 92 | 1014.4 |
| 20260906032510 | 16 | 46 | 4.8 | 14.5 | 0.10 | 0.15 | 0.15 | 92 | 1014.4 |
| 20260906032010 | 16 | 70 | 3.2 | 12.9 | 0.10 | 0.15 | 0.15 | 92 | 1014.4 |
| 20260906031531 | 16 | 347 | 4.8 | 12.9 | 0.13 | 0.15 | 0.15 | 92 | 1014.4 |
| 20260906031012 | 16 | 330 | 4.8 | 12.9 | 0.15 | 0.15 | 0.15 | 92 | 1014.3 |
| 20260906030513 | 16 | 330 | 3.2 | 11.3 | 0.13 | 0.13 | 0.13 | 92 | 1014.2 |
| 20260906030027 | 16 | 25 | 4.8 | 11.3 | 0.08 | 0.08 | 0.08 | 92 | 1014.2 |
| 20260906025515 | 16 | 17 | 3.2 | 6.4 | 0.08 | 0.08 | 0.08 | 92 | 1014.2 |
| 20260906025012 | 16 | 9 | 1.6 | 6.4 | 0.08 | 0.08 | 0.08 | 92 | 1014.3 |
| 20260906024527 | 16 | 46 | 3.2 | 11.3 | 0.08 | 0.08 | 0.08 | 91 | 1014.2 |
| 20260906024017 | 16 | 334 | 3.2 | 12.9 | 0.08 | 0.08 | 0.08 | 91 | 1014.2 |
| 20260906023515 | 17 | 9 | 4.8 | 12.9 | 0.08 | 0.08 | 0.08 | 91 | 1014.2 |
| 20260906023030 | 17 | 15 | 4.8 | 12.9 | 0.05 | 0.05 | 0.05 | 90 | 1014.1 |
| 20260906022510 | 17 | 49 | 6.4 | 12.9 | 0.05 | 0.05 | 0.05 | 90 | 1014.1 |
| 20260906022010 | 17 | 21 | 6.4 | 11.3 | 0.05 | 0.05 | 0.05 | 90 | 1014.1 |
| 20260906021531 | 17 | 93 | 1.6 | 4.8 | 0.03 | 0.03 | 0.03 | 89 | 1014.0 |
| 20260906021010 | 17 | 309 | 1.6 | 9.7 | 0.00 | 0.00 | 0.00 | 88 | 1014.0 |
| 20260906020511 | 17 | 9 | 1.6 | 11.3 | 0.00 | 0.00 | 0.00 | 87 | 1013.9 |
| 20260906020028 | 18 | 38 | 6.4 | 16.1 | 0.00 | 0.00 | 0.00 | 85 | 1013.9 |
| 20260906015503 | 18 | 302 | 4.8 | 16.1 | 0.00 | 0.00 | 0.00 | 85 | 1013.9 |
| 20260906015004 | 18 | 26 | 6.4 | 14.5 | 0.00 | 0.00 | 0.00 | 86 | 1013.7 |
| 20260906014507 | 18 | 30 | 3.2 | 11.3 | 0.00 | 0.00 | 0.00 | 86 | 1013.6 |
| 20260906014006 | 18 | 32 | 6.4 | 14.5 | 0.00 | 0.00 | 0.00 | 86 | 1013.5 |
| 20260906013514 | 18 | 34 | 8.0 | 17.7 | 0.00 | 0.00 | 0.00 | 86 | 1013.5 |
| 20260906013014 | 18 | 66 | 9.7 | 17.7 | 0.00 | 0.00 | 0.00 | 87 | 1013.5 |
| 20260906012512 | 18 | 21 | 4.8 | 14.5 | 0.00 | 0.00 | 0.00 | 88 | 1013.5 |
| 20260906012008 | 18 | 65 | 6.4 | 9.7 | 0.00 | 0.00 | 0.00 | 87 | 1013.4 |
| 20260906011518 | 18 | 9 | 0.0 | 3.2 | 0.00 | 0.00 | 0.00 | 87 | 1013.3 |
| 20260906011012 | 18 | 221 | 0.0 | 3.2 | 0.00 | 0.00 | 0.00 | 87 | 1013.4 |
| 20260906010509 | 18 | 9 | 0.0 | 4.8 | 0.00 | 0.00 | 0.00 | 87 | 1013.4 |
| 20260906010027 | 18 | 30 | 0.0 | 4.8 | 0.00 | 0.00 | 0.00 | 86 | 1013.3 |
| 20260906005514 | 18 | 51 | 0.0 | 4.8 | 0.00 | 0.00 | 0.00 | 85 | 1013.3 |
| 20260906005012 | 18 | 298 | 1.6 | 6.4 | 0.00 | 0.00 | 0.00 | 85 | 1013.2 |
| 20260906004530 | 18 | 334 | 1.6 | 6.4 | 0.00 | 0.00 | 0.00 | 86 | 1013.1 |
| 20260906004005 | 18 | 9 | 3.2 | 6.4 | 0.00 | 0.00 | 0.00 | 86 | 1013.1 |
| 20260906003504 | 18 | 9 | 1.6 | 6.4 | 0.00 | 0.00 | 0.00 | 87 | 1013.0 |
| 20260906003008 | 18 | 28 | 3.2 | 6.4 | 0.00 | 0.00 | 0.00 | 87 | 1013.0 |
| 20260906002515 | 18 | 9 | 0.0 | 3.2 | 0.00 | 0.00 | 0.00 | 87 | 1012.9 |
| 20260906002009 | 18 | 291 | 0.0 | 3.2 | 0.00 | 0.00 | 0.00 | 87 | 1012.9 |
| 20260906001532 | 18 | 309 | 0.0 | 3.2 | 0.00 | 0.00 | 0.00 | 87 | 1012.9 |
| 20260906001007 | 18 | 51 | 0.0 | 4.8 | 0.00 | 0.00 | 0.00 | 86 | 1012.9 |
| 20260906000516 | 18 | 265 | 0.0 | 4.8 | 0.00 | 0.00 | 0.00 | 86 | 1012.9 |
| 20260906000025 | 18 | 93 | 0.0 | 4.8 | 0.00 | 0.00 | 0.00 | 86 | 1012.9 |
| 20260905235514 | 18 | 282 | 1.6 | 4.8 | 0.00 | 0.00 | 0.00 | 86 | 1012.8 |
| 20260905235010 | 18 | 221 | 0.0 | 6.4 | 0.00 | 0.00 | 0.00 | 85 | 1012.8 |
| 20260905234529 | 18 | 19 | 3.2 | 8.0 | 0.00 | 0.00 | 0.00 | 84 | 1012.7 |
| 20260905234013 | 18 | 341 | 3.2 | 8.0 | 0.00 | 0.00 | 0.00 | 84 | 1012.6 |
| 20260905233515 | 18 | 22 | 1.6 | 4.8 | 0.00 | 0.00 | 0.00 | 84 | 1012.5 |
| 20260905233032 | 18 | 93 | 0.0 | 8.0 | 0.00 | 0.00 | 0.00 | 83 | 1012.5 |
| 20260905232520 | 18 | 34 | 3.2 | 8.0 | 0.00 | 0.00 | 0.00 | 83 | 1012.5 |
| 20260905232006 | 18 | 46 | 3.2 | 6.4 | 0.00 | 0.00 | 0.00 | 82 | 1012.5 |
| 20260905231532 | 19 | 34 | 0.0 | 3.2 | 0.00 | 0.00 | 0.00 | 82 | 1012.4 |
| 20260905231005 | 19 | 93 | 0.0 | 3.2 | 0.00 | 0.00 | 0.00 | 81 | 1012.3 |
| 20260905230507 | 20 | 178 | 0.0 | 3.2 | 0.00 | 0.00 | 0.00 | 80 | 1012.2 |
| 20260905230038 | 20 | 265 | 0.0 | 3.2 | 0.00 | 0.00 | 0.00 | 77 | 1012.2 |
| 20260905225520 | 20 | 9 | 0.0 | 3.2 | 0.00 | 0.00 | 0.00 | 78 | 1012.2 |
| 20260905225014 | 20 | 325 | 0.0 | 3.2 | 0.00 | 0.00 | 0.00 | 78 | 1012.2 |
| 20260905224525 | 20 | 9 | 0.0 | 3.2 | 0.00 | 0.00 | 0.00 | 77 | 1012.2 |
| 20260905224015 | 20 | 221 | 0.0 | 3.2 | 0.00 | 0.00 | 0.00 | 79 | 1012.2 |
| 20260905223512 | 21 | 325 | 0.0 | 6.4 | 0.00 | 0.00 | 0.00 | 74 | 1012.2 |
| 20260905223042 | 21 | 9 | 1.6 | 12.9 | 0.00 | 0.00 | 0.00 | 73 | 1012.2 |
| 20260905222517 | 21 | 319 | 3.2 | 12.9 | 0.00 | 0.00 | 0.00 | 72 | 1012.1 |
| 20260905222016 | 21 | 325 | 1.6 | 6.4 | 0.00 | 0.00 | 0.00 | 73 | 1012.1 |
| 20260905221531 | 21 | 334 | 3.2 | 6.4 | 0.00 | 0.00 | 0.00 | 73 | 1012.0 |
| 20260905221017 | 21 | 330 | 1.6 | 9.7 | 0.00 | 0.00 | 0.00 | 73 | 1012.0 |
| 20260905220510 | 21 | 9 | 1.6 | 9.7 | 0.00 | 0.00 | 0.00 | 70 | 1012.0 |
| 20260905220018 | 21 | 59 | 3.2 | 9.7 | 0.00 | 0.00 | 0.00 | 70 | 1012.0 |
| 20260905215506 | 21 | 332 | 3.2 | 9.7 | 0.00 | 0.00 | 0.00 | 71 | 1012.0 |
| 20260905215009 | 21 | 26 | 3.2 | 14.5 | 0.00 | 0.00 | 0.00 | 71 | 1011.9 |
| 20260905214540 | 21 | 30 | 3.2 | 14.5 | 0.00 | 0.00 | 0.00 | 70 | 1011.8 |
| 20260905214010 | 21 | 26 | 3.2 | 17.7 | 0.00 | 0.00 | 0.00 | 71 | 1011.7 |
| 20260905213515 | 21 | 19 | 4.8 | 17.7 | 0.00 | 0.00 | 0.00 | 71 | 1011.7 |
| 20260905213026 | 21 | 31 | 4.8 | 14.5 | 0.00 | 0.00 | 0.00 | 70 | 1011.6 |
| 20260905212517 | 21 | 22 | 3.2 | 14.5 | 0.00 | 0.00 | 0.00 | 70 | 1011.5 |
| 20260905212013 | 21 | 9 | 3.2 | 14.5 | 0.00 | 0.00 | 0.00 | 70 | 1011.4 |
| 20260905211535 | 21 | 9 | 6.4 | 24.1 | 0.00 | 0.00 | 0.00 | 68 | 1011.3 |
| 20260905211014 | 22 | 57 | 12.9 | 24.1 | 0.00 | 0.00 | 0.00 | 67 | 1011.3 |
| 20260905210514 | 22 | 51 | 8.0 | 27.4 | 0.00 | 0.00 | 0.00 | 66 | 1011.3 |
| 20260905210044 | 23 | 44 | 8.0 | 29.0 | 0.00 | 0.00 | 0.00 | 65 | 1011.2 |
| 20260905205516 | 23 | 74 | 12.9 | 29.0 | 0.00 | 0.00 | 0.00 | 63 | 1011.1 |
| 20260905205017 | 23 | 67 | 12.9 | 25.7 | 0.00 | 0.00 | 0.00 | 63 | 1011.1 |
| 20260905204518 | 23 | 63 | 6.4 | 17.7 | 0.00 | 0.00 | 0.00 | 65 | 1011.0 |
| 20260905204011 | 23 | 44 | 4.8 | 17.7 | 0.00 | 0.00 | 0.00 | 65 | 1011.0 |
| 20260905203517 | 23 | 311 | 4.8 | 20.9 | 0.00 | 0.00 | 0.00 | 64 | 1010.9 |
| 20260905203026 | 23 | 34 | 8.0 | 27.4 | 0.00 | 0.00 | 0.00 | 62 | 1010.8 |
| 20260905202518 | 23 | 34 | 11.3 | 27.4 | 0.00 | 0.00 | 0.00 | 61 | 1010.7 |
| 20260905202013 | 23 | 25 | 16.1 | 25.7 | 0.00 | 0.00 | 0.00 | 61 | 1010.7 |
| 20260905201532 | 22 | 20 | 12.9 | 25.7 | 0.00 | 0.00 | 0.00 | 62 | 1010.7 |
| 20260905201014 | 23 | 31 | 12.9 | 32.2 | 0.00 | 0.00 | 0.00 | 62 | 1010.7 |
| 20260905200515 | 23 | 32 | 12.9 | 32.2 | 0.00 | 0.00 | 0.00 | 61 | 1010.7 |
| 20260905200046 | 23 | 48 | 12.9 | 24.1 | 0.00 | 0.00 | 0.00 | 60 | 1010.6 |
| 20260905195518 | 24 | 347 | 11.3 | 33.8 | 0.00 | 0.00 | 0.00 | 59 | 1010.6 |
| 20260905195017 | 24 | 53 | 20.9 | 33.8 | 0.00 | 0.00 | 0.00 | 60 | 1010.6 |
| 20260905194534 | 24 | 348 | 12.9 | 33.8 | 0.00 | 0.00 | 0.00 | 62 | 1010.7 |
| 20260905194015 | 24 | 323 | 17.7 | 32.2 | 0.00 | 0.00 | 0.00 | 61 | 1010.6 |
| 20260905193519 | 23 | 11 | 12.9 | 32.2 | 0.00 | 0.00 | 0.00 | 62 | 1010.6 |
| 20260905193020 | 25 | 48 | 17.7 | 32.2 | 0.00 | 0.00 | 0.00 | 61 | 1010.7 |
| 20260905192510 | 25 | 38 | 17.7 | 33.8 | 0.00 | 0.00 | 0.00 | 61 | 1010.7 |
| 20260905192018 | 25 | 36 | 17.7 | 33.8 | 0.00 | 0.00 | 0.00 | 60 | 1010.7 |
| 20260905191534 | 25 | 40 | 20.9 | 33.8 | 0.00 | 0.00 | 0.00 | 60 | 1010.7 |
| 20260905191015 | 24 | 54 | 14.5 | 27.4 | 0.00 | 0.00 | 0.00 | 62 | 1010.7 |
| 20260905190516 | 24 | 34 | 14.5 | 27.4 | 0.00 | 0.00 | 0.00 | 63 | 1010.8 |
| 20260905190029 | 23 | 56 | 11.3 | 27.4 | 0.00 | 0.00 | 0.00 | 65 | 1010.8 |
| 20260905185504 | 23 | 56 | 11.3 | 24.1 | 0.00 | 0.00 | 0.00 | 64 | 1010.8 |
| 20260905185004 | 23 | 79 | 11.3 | 32.2 | 0.00 | 0.00 | 0.00 | 63 | 1010.8 |
| 20260905184522 | 23 | 347 | 14.5 | 32.2 | 0.00 | 0.00 | 0.00 | 62 | 1010.8 |
| 20260905184007 | 23 | 340 | 8.0 | 29.0 | 0.00 | 0.00 | 0.00 | 64 | 1010.8 |
| 20260905183506 | 24 | 34 | 9.7 | 29.0 | 0.00 | 0.00 | 0.00 | 62 | 1010.9 |
| 20260905183026 | 25 | 20 | 16.1 | 37.0 | 0.00 | 0.00 | 0.00 | 61 | 1010.7 |
| 20260905182504 | 25 | 337 | 17.7 | 37.0 | 0.00 | 0.00 | 0.00 | 59 | 1010.7 |
| 20260905182003 | 24 | 24 | 20.9 | 30.6 | 0.00 | 0.00 | 0.00 | 59 | 1010.8 |
| 20260905181505 | 25 | 38 | 9.7 | 19.3 | 0.00 | 0.00 | 0.00 | 61 | 1010.8 |
| 20260905181011 | 23 | 16 | 6.4 | 25.7 | 0.00 | 0.00 | 0.00 | 65 | 1010.8 |
| 20260905180504 | 23 | 77 | 12.9 | 27.4 | 0.00 | 0.00 | 0.00 | 64 | 1010.9 |
| 20260905180037 | 22 | 340 | 12.9 | 29.0 | 0.00 | 0.00 | 0.00 | 64 | 1010.9 |
| 20260905175503 | 23 | 49 | 11.3 | 29.0 | 0.00 | 0.00 | 0.00 | 62 | 1010.8 |
| 20260905175003 | 23 | 346 | 17.7 | 29.0 | 0.00 | 0.00 | 0.00 | 61 | 1010.8 |
| 20260905174531 | 24 | 59 | 19.3 | 30.6 | 0.00 | 0.00 | 0.00 | 61 | 1010.8 |
| 20260905174007 | 25 | 13 | 19.3 | 30.6 | 0.00 | 0.00 | 0.00 | 56 | 1010.7 |
| 20260905173509 | 25 | 38 | 9.7 | 30.6 | 0.00 | 0.00 | 0.00 | 59 | 1010.8 |
| 20260905173017 | 25 | 66 | 16.1 | 30.6 | 0.00 | 0.00 | 0.00 | 57 | 1010.8 |
| 20260905172506 | 25 | 311 | 11.3 | 25.7 | 0.00 | 0.00 | 0.00 | 58 | 1010.7 |
| 20260905172008 | 24 | 47 | 11.3 | 30.6 | 0.00 | 0.00 | 0.00 | 60 | 1010.8 |
| 20260905171524 | 23 | 22 | 14.5 | 46.7 | 0.00 | 0.00 | 0.00 | 63 | 1010.8 |
| 20260905171003 | 24 | 51 | 20.9 | 48.3 | 0.00 | 0.00 | 0.00 | 59 | 1010.8 |
| 20260905170512 | 24 | 34 | 19.3 | 41.8 | 0.00 | 0.00 | 0.00 | 59 | 1010.8 |
| 20260905170028 | 23 | 28 | 19.3 | 32.2 | 0.00 | 0.00 | 0.00 | 59 | 1010.8 |
| 20260905165513 | 23 | 45 | 22.5 | 35.4 | 0.00 | 0.00 | 0.00 | 61 | 1010.9 |
| 20260905165005 | 24 | 348 | 19.3 | 35.4 | 0.00 | 0.00 | 0.00 | 59 | 1010.8 |
| 20260905164507 | 23 | 51 | 6.4 | 32.2 | 0.00 | 0.00 | 0.00 | 64 | 1010.8 |
| 20260905164003 | 22 | 25 | 14.5 | 32.2 | 0.00 | 0.00 | 0.00 | 64 | 1010.9 |
| 20260905163506 | 23 | 40 | 16.1 | 30.6 | 0.00 | 0.00 | 0.00 | 62 | 1010.9 |
| 20260905163014 | 23 | 33 | 14.5 | 30.6 | 0.00 | 0.00 | 0.00 | 63 | 1010.9 |
| 20260905162518 | 23 | 61 | 20.9 | 30.6 | 0.00 | 0.00 | 0.00 | 63 | 1010.9 |
| 20260905162007 | 24 | 83 | 17.7 | 29.0 | 0.00 | 0.00 | 0.00 | 63 | 1010.9 |
| 20260905161517 | 24 | 39 | 12.9 | 29.0 | 0.00 | 0.00 | 0.00 | 63 | 1010.9 |
| 20260905161013 | 23 | 18 | 16.1 | 35.4 | 0.00 | 0.00 | 0.00 | 64 | 1011.0 |
| 20260905160511 | 23 | 66 | 22.5 | 35.4 | 0.00 | 0.00 | 0.00 | 63 | 1011.0 |
| 20260905160027 | 23 | 41 | 16.1 | 33.8 | 0.00 | 0.00 | 0.00 | 66 | 1011.1 |
| 20260905155518 | 22 | 47 | 16.1 | 25.7 | 0.00 | 0.00 | 0.00 | 69 | 1011.3 |
| 20260905155012 | 21 | 30 | 9.7 | 27.4 | 0.00 | 0.00 | 0.00 | 69 | 1011.3 |
| 20260905154506 | 22 | 64 | 9.7 | 27.4 | 0.00 | 0.00 | 0.00 | 68 | 1011.3 |
| 20260905154005 | 22 | 36 | 8.0 | 20.9 | 0.00 | 0.00 | 0.00 | 68 | 1011.4 |
| 20260905153503 | 21 | 33 | 9.7 | 27.4 | 0.00 | 0.00 | 0.00 | 73 | 1011.5 |
| 20260905153014 | 21 | 49 | 9.7 | 27.4 | 0.00 | 0.00 | 0.00 | 69 | 1011.5 |
| 20260905152504 | 21 | 46 | 11.3 | 30.6 | 0.00 | 0.00 | 0.00 | 69 | 1011.5 |
| 20260905152016 | 21 | 31 | 14.5 | 30.6 | 0.00 | 0.00 | 0.00 | 70 | 1011.5 |
| 20260905151517 | 21 | 64 | 14.5 | 25.7 | 0.00 | 0.00 | 0.00 | 69 | 1011.5 |
| 20260905151008 | 21 | 67 | 14.5 | 25.7 | 0.00 | 0.00 | 0.00 | 71 | 1011.5 |
| 20260905150514 | 22 | 31 | 16.1 | 27.4 | 0.00 | 0.00 | 0.00 | 70 | 1011.5 |
| 20260905150026 | 22 | 63 | 16.1 | 29.0 | 0.00 | 0.00 | 0.00 | 72 | 1011.5 |
| 20260905145512 | 22 | 44 | 12.9 | 29.0 | 0.00 | 0.00 | 0.00 | 71 | 1011.5 |
| 20260905145010 | 22 | 21 | 14.5 | 30.6 | 0.00 | 0.00 | 0.00 | 73 | 1011.5 |
| 20260905144528 | 22 | 79 | 11.3 | 30.6 | 0.00 | 0.00 | 0.00 | 74 | 1011.5 |
| 20260905144012 | 22 | 47 | 20.9 | 29.0 | 0.00 | 0.00 | 0.00 | 73 | 1011.4 |
| 20260905143503 | 21 | 15 | 11.3 | 24.1 | 0.00 | 0.00 | 0.00 | 76 | 1011.4 |
| 20260905143009 | 21 | 38 | 14.5 | 24.1 | 0.00 | 0.00 | 0.00 | 77 | 1011.5 |
| 20260905142506 | 20 | 57 | 11.3 | 24.1 | 0.00 | 0.00 | 0.00 | 78 | 1011.5 |
| 20260905142016 | 20 | 55 | 8.0 | 27.4 | 0.00 | 0.00 | 0.00 | 79 | 1011.6 |
| 20260905141514 | 21 | 50 | 19.3 | 27.4 | 0.00 | 0.00 | 0.00 | 78 | 1011.6 |
| 20260905141009 | 20 | 57 | 8.0 | 16.1 | 0.00 | 0.00 | 0.00 | 82 | 1011.7 |
| 20260905140508 | 20 | 71 | 6.4 | 11.3 | 0.00 | 0.00 | 0.00 | 82 | 1011.8 |
| 20260905140018 | 19 | 79 | 4.8 | 11.3 | 0.00 | 0.00 | 0.00 | 84 | 1011.8 |
| 20260905135509 | 18 | 57 | 6.4 | 12.9 | 0.00 | 0.00 | 0.00 | 82 | 1011.7 |
| 20260905135011 | 18 | 165 | 3.2 | 12.9 | 0.00 | 0.00 | 0.00 | 84 | 1011.7 |
| 20260905134539 | 18 | 46 | 4.8 | 9.7 | 0.00 | 0.00 | 0.00 | 87 | 1011.7 |
| 20260905134014 | 18 | 41 | 3.2 | 6.4 | 0.00 | 0.00 | 0.00 | 91 | 1011.8 |
| 20260905133515 | 17 | 19 | 1.6 | 6.4 | 0.00 | 0.00 | 0.00 | 93 | 1011.8 |
| 20260905133035 | 17 | 56 | 4.8 | 6.4 | 0.00 | 0.00 | 0.00 | 94 | 1011.8 |
| 20260905132517 | 16 | 83 | 1.6 | 6.4 | 0.00 | 0.00 | 0.00 | 94 | 1011.9 |
| 20260905132016 | 16 | 19 | 4.8 | 6.4 | 0.00 | 0.00 | 0.00 | 95 | 1011.8 |
| 20260905131530 | 16 | 119 | 1.6 | 8.0 | 0.00 | 0.00 | 0.00 | 95 | 1011.8 |
| 20260905131020 | 16 | 41 | 3.2 | 8.0 | 0.00 | 0.00 | 0.00 | 95 | 1011.8 |
| 20260905130507 | 16 | 338 | 3.2 | 9.7 | 0.00 | 0.00 | 0.00 | 95 | 1011.9 |
| 20260905130014 | 15 | 28 | 4.8 | 9.7 | 0.00 | 0.00 | 0.00 | 95 | 1011.8 |
| 20260905125506 | 15 | 34 | 4.8 | 9.7 | 0.00 | 0.00 | 0.00 | 95 | 1011.8 |
| 20260905125008 | 15 | 32 | 4.8 | 8.0 | 0.00 | 0.00 | 0.00 | 95 | 1011.8 |
| 20260905124524 | 15 | 41 | 3.2 | 8.0 | 0.00 | 0.00 | 0.00 | 95 | 1011.8 |
| 20260905124013 | 15 | 61 | 3.2 | 6.4 | 0.00 | 0.00 | 0.00 | 95 | 1011.7 |
| 20260905123516 | 15 | 59 | 1.6 | 6.4 | 0.00 | 0.00 | 0.00 | 95 | 1011.7 |
| 20260905123053 | 15 | 51 | 3.2 | 6.4 | 0.00 | 0.00 | 0.00 | 95 | 1011.6 |
| 20260905122518 | 15 | 63 | 4.8 | 6.4 | 0.00 | 0.00 | 0.00 | 95 | 1011.6 |
| 20260905122014 | 15 | 26 | 3.2 | 6.4 | 0.00 | 0.00 | 0.00 | 95 | 1011.5 |
| 20260905121535 | 15 | 51 | 1.6 | 8.0 | 0.00 | 0.00 | 0.00 | 95 | 1011.5 |
| 20260905121014 | 15 | 51 | 3.2 | 8.0 | 0.00 | 0.00 | 0.00 | 95 | 1011.5 |
| 20260905120514 | 15 | 71 | 4.8 | 8.0 | 0.00 | 0.00 | 0.00 | 95 | 1011.5 |
| 20260905120012 | 15 | 51 | 4.8 | 12.9 | 0.00 | 0.00 | 0.00 | 95 | 1011.4 |
| 20260905115511 | 15 | 71 | 4.8 | 12.9 | 0.00 | 0.00 | 0.00 | 95 | 1011.4 |
| 20260905115008 | 15 | 49 | 4.8 | 8.0 | 0.00 | 0.00 | 0.00 | 95 | 1011.3 |
| 20260905114521 | 15 | 22 | 4.8 | 8.0 | 0.00 | 0.00 | 0.00 | 95 | 1011.3 |
| 20260905114011 | 15 | 41 | 3.2 | 11.3 | 0.00 | 0.00 | 0.00 | 95 | 1011.2 |
| 20260905113511 | 14 | 38 | 4.8 | 11.3 | 0.00 | 0.00 | 0.00 | 95 | 1011.3 |
| 20260905113030 | 14 | 16 | 4.8 | 8.0 | 0.00 | 0.00 | 0.00 | 95 | 1011.3 |
| 20260905112514 | 14 | 17 | 4.8 | 8.0 | 0.00 | 0.00 | 0.00 | 95 | 1011.2 |
| 20260905112014 | 14 | 51 | 1.6 | 6.4 | 0.00 | 0.00 | 0.00 | 95 | 1011.3 |
| 20260905111530 | 14 | 336 | 3.2 | 8.0 | 0.00 | 0.00 | 0.00 | 94 | 1011.2 |